Theta_e
335 335 336 336 336 336 336 336 337 335 335 336 337 339 337 337 343 346 349 351 353 356 357 355 354 354 354 352 351 351 354 355 358 359 357 359 360 361 362 363 363 362 363 362
339 337 338 338 336 336 335 336 336 336 337 336 340 339 340 340 344 348 350 350 352 353 357 358 356 356 356 355 355 353 357 357 358 360 360 359 360 361 362 363 364 364 363 363
340 336 337 338 336 335 336 336 336 337 336 338 339 338 338 341 342 343 344 346 350 350 352 358 358 357 358 358 358 358 361 359 360 362 362 363 363 362 363 364 365 365 362 361
337 335 338 333 331 331 332 333 333 334 334 337 339 338 336 339 339 340 340 342 346 348 350 357 357 358 358 358 359 360 360 361 362 364 364 364 364 364 365 366 365 362 360 356
331 329 328 326 327 328 327 328 334 334 335 337 338 338 339 340 338 338 338 338 338 340 345 350 359 360 361 359 358 360 360 362 362 364 364 364 364 366 366 364 362 358 354 353
327 328 327 326 333 332 331 332 338 337 338 339 338 339 341 338 336 337 336 335 334 336 340 346 350 356 360 361 358 358 359 361 362 363 364 365 367 366 365 361 356 355 350 348
327 328 327 326 331 330 331 335 334 333 335 336 339 340 338 334 334 333 333 333 333 334 337 344 348 353 360 361 360 359 360 360 363 365 367 366 365 361 359 357 353 349 345 344
330 329 329 332 330 331 334 331 331 332 332 333 334 334 333 332 333 333 333 332 332 333 335 338 344 350 353 359 361 361 362 363 365 366 365 365 360 357 356 352 347 345 342 341
333 333 333 331 331 330 328 327 327 329 328 328 329 329 330 331 330 331 331 332 331 332 334 335 338 345 352 354 360 359 358 360 361 363 363 360 355 355 352 347 346 343 341 338
329 327 327 326 327 327 328 326 325 325 325 325 326 326 327 330 330 330 329 331 330 331 333 335 335 339 344 352 356 357 356 351 339 357 357 356 354 354 352 348 347 343 338 336
327 326 325 325 324 325 324 323 323 324 324 324 324 325 325 326 329 327 327 329 330 330 331 332 335 337 341 348 352 355 354 351 353 351 353 353 339 344 337 330 340 341 335 331
326 324 325 325 324 323 323 323 323 323 324 324 325 325 325 326 325 325 326 327 329 330 329 330 332 334 338 342 349 350 349 348 345 344 338 337 331 328 337 332 327 329 326 324
323 322 322 323 322 320 322 322 321 322 324 324 323 323 325 327 326 326 325 326 327 328 328 329 331 334 336 339 346 346 346 344 340 339 337 331 323 325 314 319 326 320 319 318
322 322 322 321 321 322 322 321 321 321 321 322 323 324 323 325 325 327 327 327 327 328 330 329 332 334 335 337 343 342 344 344 340 338 335 327 324 321 318 317 316 313 311 311
321 319 320 321 321 321 321 323 324 323 323 324 323 324 323 327 327 328 327 328 328 328 330 331 334 334 335 336 338 335 341 337 333 331 330 326 325 322 320 320 319 316 312 311
319 318 318 320 322 323 323 322 323 324 324 324 324 323 324 324 326 326 328 329 331 331 330 332 334 334 334 333 334 331 337 334 332 331 329 328 327 325 326 325 322 319 318 316
319 320 321 322 322 322 321 322 323 324 324 324 323 323 323 323 325 325 327 328 329 332 332 333 334 333 331 330 329 330 333 332 332 329 328 327 328 327 324 322 319 317 314 313
318 320 319 318 321 320 320 320 321 321 322 322 321 322 323 324 327 328 328 328 329 331 333 332 329 330 330 328 329 329 331 331 329 328 329 327 326 324 322 319 318 314 311 310
317 319 318 318 318 320 320 320 320 319 319 320 321 322 323 323 325 326 326 329 329 332 332 328 325 325 326 328 329 328 323 320 320 321 321 319 318 318 318 317 317 315 311 310
319 318 317 318 318 318 318 317 317 319 319 320 320 323 324 324 325 326 327 329 329 330 330 327 324 321 320 321 323 321 318 317 314 314 314 313 312 312 312 311 310 312 310 310
319 318 318 316 315 317 317 320 323 323 322 323 324 324 324 324 326 327 329 336 330 330 330 324 322 319 319 318 317 315 315 315 316 313 313 313 312 311 310 311 311 311 311 310
318 316 317 316 317 317 317 321 322 323 324 324 324 325 326 327 327 328 328 329 326 328 323 320 319 318 316 316 314 313 313 311 311 311 310 310 310 310 311 310 310 309 308 309
318 316 316 316 317 318 318 319 321 320 322 321 322 324 326 327 327 330 329 322 319 321 317 315 316 315 314 313 313 312 313 313 312 311 312 312 312 312 310 310 309 308 308 307
317 318 317 316 318 319 319 317 318 319 319 320 320 320 321 327 322 326 322 318 316 315 313 311 310 310 309 309 310 310 310 310 310 311 311 311 311 311 310 309 309 308 306 307
318 318 318 319 320 318 319 319 318 318 318 319 315 316 321 321 316 314 313 312 311 311 310 308 308 308 309 309 309 310 309 310 310 310 310 310 310 309 309 308 307 307 308 308
318 317 317 317 318 319 319 319 318 317 317 316 314 313 313 313 313 312 311 312 312 311 311 313 313 312 311 310 309 308 308 307 307 308 308 308 308 308 308 307 306 308 308 308
315 314 314 315 317 318 317 319 316 317 317 317 316 315 313 313 313 314 315 315 315 313 312 311 311 310 310 310 309 309 309 309 308 309 308 307 307 307 307 307 308 308 308 307
Wind_Speed
19 20 18 12 15 13 14 13 15 15 17 14 12 10 8 8 11 11 10 10 11 11 12 12 11 13 15 21 23 26 26 27 27 26 24 22 21 20 19 18 16 15 13 10
20 20 17 22 18 19 19 19 20 19 19 15 8 5 9 8 9 10 11 12 13 14 11 12 13 15 16 17 19 22 24 25 23 24 23 23 21 20 18 17 15 14 12 8
19 16 19 24 19 22 18 21 19 20 17 5 5 6 5 7 8 9 12 12 12 13 12 13 13 15 18 18 19 21 21 25 23 23 23 22 20 18 17 16 15 13 10 6
15 18 22 16 16 14 10 14 17 15 12 5 6 8 4 9 8 8 10 12 14 14 18 14 14 11 15 19 19 21 21 22 23 23 22 21 20 18 17 17 14 12 9 7
14 16 20 18 9 8 12 13 7 8 3 1 5 9 1 9 7 8 9 10 14 19 20 18 14 12 10 14 20 21 23 23 23 25 23 22 20 18 18 17 16 14 11 8
13 17 19 14 10 9 5 11 12 7 7 7 7 10 6 9 9 10 12 14 15 17 20 18 18 17 12 13 18 20 22 22 22 23 23 22 21 20 19 19 19 14 12 10
14 15 19 14 7 2 9 2 7 7 7 7 8 8 14 12 11 13 14 15 16 17 15 19 19 16 16 15 17 17 19 19 19 21 23 22 25 25 27 21 18 19 13 11
13 17 21 10 4 7 7 5 6 7 8 10 9 11 13 14 13 13 14 16 16 16 16 16 19 16 17 17 16 16 13 16 21 24 26 29 30 30 25 26 23 16 15 12
9 10 5 3 4 4 5 8 10 8 8 12 14 15 15 13 15 14 18 17 17 16 16 17 17 17 20 20 19 16 19 18 17 15 22 27 32 29 28 26 22 19 17 15
13 16 15 9 1 5 14 14 10 14 16 17 20 20 18 16 16 14 20 19 19 18 16 16 18 19 20 18 20 13 17 17 23 20 20 23 24 26 24 23 22 20 17 17
15 16 17 16 16 14 15 16 17 18 19 20 22 21 21 18 17 20 21 22 20 19 18 18 17 18 19 18 16 13 14 13 13 23 25 23 17 17 9 11 7 16 16 16
6 10 13 15 16 20 21 22 22 21 21 22 18 19 19 18 22 24 24 24 21 20 21 20 18 18 18 17 17 15 17 15 14 13 12 15 20 26 27 7 9 13 11 13
11 14 15 17 17 18 20 17 16 18 16 15 21 24 25 17 24 25 26 26 25 25 24 22 20 19 18 17 17 19 23 19 22 18 12 12 13 16 26 21 24 9 9 11
9 13 16 16 14 14 17 24 27 23 25 23 26 23 27 25 25 24 22 25 25 24 24 24 21 20 18 17 17 18 23 27 25 23 21 19 17 17 21 21 23 18 10 10
13 11 15 15 14 17 20 19 19 16 14 16 24 24 26 19 15 21 22 25 23 24 23 19 17 21 16 16 16 18 23 23 23 23 22 23 20 19 18 17 16 19 16 10
17 17 17 16 17 21 21 20 20 20 19 17 17 19 27 28 22 21 24 20 17 16 20 17 18 17 14 14 15 18 21 28 29 25 24 24 21 19 17 17 15 14 13 11
17 18 20 20 21 22 22 21 19 21 20 19 24 25 28 26 26 23 20 24 24 12 17 16 15 14 11 13 16 18 20 23 27 26 24 20 16 16 16 15 14 12 10 9
17 16 17 20 21 17 18 19 21 27 25 31 32 28 28 25 18 24 21 20 21 10 13 10 10 11 10 11 9 13 18 24 23 23 18 20 17 14 14 14 13 12 8 10
16 15 24 24 20 17 17 18 27 29 32 34 32 26 29 29 26 27 23 20 15 15 11 6 5 4 8 14 10 16 19 21 29 28 27 22 19 11 3 13 13 13 12 11
17 20 24 21 23 25 21 30 31 28 29 28 30 28 21 27 25 26 24 19 15 16 8 12 11 12 16 19 24 27 24 22 21 29 28 24 20 22 10 13 16 12 15 13
14 20 21 19 24 30 25 25 21 17 20 22 21 20 22 21 26 22 17 8 12 11 13 20 15 14 15 19 19 20 23 26 16 20 17 22 22 20 17 16 15 11 10 11
14 13 17 23 24 22 26 25 23 21 14 15 12 13 16 18 17 18 18 10 11 16 22 20 20 21 24 26 26 25 22 22 19 20 16 16 16 16 14 14 14 12 10 10
14 11 16 20 20 22 24 25 26 24 21 17 15 15 15 15 13 9 4 11 18 20 20 21 24 27 26 26 24 23 18 19 21 20 15 16 15 15 15 14 14 14 13 12
14 13 16 18 19 19 13 24 25 21 22 19 16 15 13 13 8 4 13 19 26 26 27 32 29 27 23 24 21 20 19 19 16 14 14 13 13 14 15 15 14 14 14 14
13 15 14 14 13 10 17 20 20 21 23 15 15 14 6 11 12 18 23 25 29 34 36 30 28 24 21 20 19 18 17 18 20 18 15 15 15 15 15 15 14 14 13 13
9 13 13 17 16 15 19 17 15 21 23 18 21 19 25 23 28 28 28 31 32 28 28 27 22 17 15 15 16 18 17 19 18 16 16 15 15 14 14 13 13 12 11 11
8 9 15 14 19 16 20 17 15 18 23 23 22 25 29 30 29 26 23 23 28 17 19 19 19 19 18 17 16 17 16 16 15 14 14 13 12 12 12 11 10 10 9 9
Wind_Direction
280 288 293 289 274 264 264 270 268 282 293 311 335 2 340 342 351 355 360 1 358 348 330 294 238 230 227 215 216 208 198 200 203 206 208 207 207 214 220 220 225 226 227 231
276 281 283 280 262 267 271 272 273 274 277 291 39 359 350 353 353 1 9 6 359 352 330 314 260 242 235 227 228 218 197 201 203 202 205 207 208 208 210 214 216 213 218 225
263 263 271 263 258 258 268 272 267 267 277 24 342 6 335 9 12 8 3 360 360 348 336 320 290 249 239 233 227 228 209 202 203 200 200 197 196 199 204 205 204 196 198 164
274 283 258 269 290 316 308 300 307 303 302 19 356 335 308 71 21 3 7 356 353 354 351 334 316 270 249 238 229 225 220 207 203 198 196 191 192 197 195 193 188 181 149 173
259 255 264 266 256 265 266 263 343 311 297 277 341 325 206 78 11 360 352 346 345 343 342 356 345 320 289 254 243 224 219 213 205 197 193 190 194 192 184 169 157 140 161 165
251 263 267 277 50 21 309 248 24 354 321 320 324 281 71 3 346 347 342 340 341 338 334 352 350 330 306 275 245 232 227 213 203 192 190 187 182 172 161 153 149 158 150 140
238 250 263 289 75 69 252 33 2 355 332 310 299 333 327 325 336 336 335 341 342 339 343 344 337 342 326 296 270 251 238 213 196 186 176 171 158 156 157 152 155 142 145 151
247 261 263 26 307 272 43 1 342 329 327 318 308 306 305 312 319 323 324 330 336 337 343 336 330 333 323 308 296 279 260 197 197 184 173 158 152 152 154 145 140 149 157 161
323 330 31 17 53 39 326 322 312 295 303 311 301 297 297 303 309 313 312 321 320 325 330 333 331 327 318 310 309 278 234 204 185 167 169 162 151 153 149 150 158 166 170 164
279 287 298 307 72 293 300 300 318 303 300 296 297 296 292 293 299 304 305 303 308 311 315 316 324 317 307 312 305 261 225 187 178 190 174 161 155 158 167 168 169 166 172 170
280 279 292 297 310 333 313 302 292 287 287 289 287 285 287 287 286 287 290 290 291 297 304 306 306 307 303 303 299 253 208 183 202 144 162 158 129 146 92 1 193 165 170 163
314 347 315 309 315 317 306 298 294 292 284 281 279 280 278 277 280 280 279 280 283 284 291 290 294 294 296 292 288 244 185 176 164 159 130 146 121 121 127 119 26 132 152 153
314 323 303 301 296 287 294 302 305 307 309 292 286 289 286 281 281 281 280 274 272 274 279 286 287 285 286 284 277 268 189 176 166 165 165 146 128 131 112 137 169 162 172 140
296 292 288 298 304 300 299 297 294 280 272 281 282 272 274 275 276 274 270 268 267 270 273 275 279 279 280 278 267 272 214 182 174 176 171 155 155 150 149 156 142 142 148 148
304 311 303 295 303 297 293 303 291 276 278 294 301 290 274 273 278 283 282 273 268 268 266 273 281 276 274 267 261 268 225 178 175 166 149 152 160 156 162 167 161 140 137 120
300 299 292 305 301 304 302 295 295 290 290 282 280 275 285 280 266 274 284 266 265 265 278 275 273 276 281 258 256 261 226 183 169 165 158 160 168 164 166 158 141 148 147 140
315 319 322 314 305 304 297 296 289 285 280 284 283 277 280 281 282 266 268 274 270 237 265 274 281 281 268 258 259 248 198 185 165 156 155 153 166 164 159 150 148 147 140 164
334 333 312 318 311 302 287 288 286 285 285 285 284 283 274 264 269 265 254 261 267 275 264 262 282 278 262 251 200 177 167 159 143 140 149 158 156 154 152 158 149 134 123 138
307 330 327 310 302 295 289 288 290 290 285 278 273 268 266 260 253 263 253 248 248 249 243 220 234 229 168 191 145 147 118 113 119 126 125 114 111 89 121 148 139 141 143 144
325 320 322 320 309 302 297 294 287 278 272 268 268 262 257 256 251 249 249 243 238 247 198 180 166 141 125 121 125 114 109 114 113 123 128 126 136 131 185 138 134 135 123 131
327 331 333 328 319 314 305 299 302 283 274 287 257 249 246 249 253 250 244 242 236 220 172 158 162 149 140 132 129 125 129 124 130 129 142 135 142 146 154 146 132 140 139 141
323 347 333 319 316 322 331 332 343 343 334 334 313 281 259 258 252 250 261 209 146 160 156 160 166 154 141 135 128 123 123 129 132 124 128 148 150 149 141 130 131 137 148 146
326 333 316 312 317 324 325 346 351 350 348 345 335 318 293 272 259 247 163 131 142 160 151 149 149 139 134 130 130 132 134 137 137 138 165 153 148 141 143 149 146 146 144 140
315 300 291 301 320 329 338 339 336 338 339 338 334 322 301 269 66 101 137 148 143 139 135 136 133 127 124 127 128 129 122 117 120 128 120 125 133 136 135 144 143 142 139 136
314 317 317 326 338 328 334 341 351 350 341 339 345 332 19 116 112 107 113 125 130 129 129 126 127 124 119 116 118 119 124 131 130 130 141 146 142 144 140 138 138 139 137 132
354 336 348 344 339 14 7 11 359 354 3 25 30 53 73 85 101 98 104 116 121 123 130 134 135 127 124 130 132 131 125 123 129 139 139 138 136 135 137 136 137 136 134 133
10 338 358 353 4 29 21 29 15 9 24 25 39 57 68 76 86 97 109 118 124 127 142 143 142 132 129 132 122 122 124 125 128 129 129 133 134 136 140 143 145 145 146 148